WMT725 EPWR-LUKK

Flight info

Callsign WMT725
Flight time 1h 29m
Altitude 37000
Route MOFKE T714 MAPIK DCT KELEL DCT KEKED DCT SOMET DCT BUZZE DCT UNIRA
Aircraft A320/M-SDE3FGHIRWY/LB1

Departure

Time 2026-04-27 08:48
Airport Copernicus Wrocław Airport (EPWR)

Arrival

Time 2026-04-27 10:17
Airport Chişinău International Airport (LUKK)
Time Latitude Longitude Altitude Speed Heading
2026-04-27 08:10 51.10891 16.87942 403 ft 0 kts 26°
2026-04-27 08:36 51.10880 16.87933 402 ft 4 kts 26°
2026-04-27 08:37 51.10856 16.87915 400 ft 4 kts 18°
2026-04-27 08:37 51.10830 16.87909 399 ft 4 kts 349°
2026-04-27 08:37 51.10810 16.87926 401 ft 3 kts 298°
2026-04-27 08:37 51.10806 16.87936 403 ft 0 kts 296°
2026-04-27 08:41 51.10807 16.87934 403 ft 0 kts 296°
2026-04-27 08:41 51.10812 16.87919 401 ft 3 kts 296°
2026-04-27 08:41 51.10823 16.87880 403 ft 5 kts 296°
2026-04-27 08:41 51.10842 16.87818 401 ft 7 kts 296°
2026-04-27 08:42 51.10869 16.87732 403 ft 10 kts 296°
2026-04-27 08:42 51.10902 16.87622 400 ft 12 kts 296°
2026-04-27 08:42 51.10942 16.87494 400 ft 13 kts 296°
2026-04-27 08:42 51.10933 16.87410 402 ft 9 kts 213°
2026-04-27 08:43 51.10868 16.87359 403 ft 11 kts 206°
2026-04-27 08:43 51.10791 16.87299 403 ft 13 kts 206°
2026-04-27 08:43 51.10701 16.87238 403 ft 15 kts 182°
2026-04-27 08:43 51.10639 16.87373 402 ft 17 kts 116°
2026-04-27 08:44 51.10585 16.87547 401 ft 19 kts 116°
2026-04-27 08:44 51.10524 16.87745 402 ft 21 kts 116°
2026-04-27 08:44 51.10460 16.87958 401 ft 22 kts 116°
2026-04-27 08:44 51.10391 16.88180 402 ft 23 kts 116°
2026-04-27 08:45 51.10319 16.88413 406 ft 24 kts 116°
2026-04-27 08:45 51.10241 16.88669 404 ft 27 kts 116°
2026-04-27 08:45 51.10159 16.88937 399 ft 27 kts 116°
2026-04-27 08:45 51.10078 16.89200 405 ft 27 kts 116°
2026-04-27 08:46 51.10011 16.89417 404 ft 16 kts 116°
2026-04-27 08:46 51.09960 16.89583 405 ft 16 kts 116°
2026-04-27 08:46 51.09921 16.89701 403 ft 11 kts 127°
2026-04-27 08:46 51.09903 16.89753 403 ft 3 kts 12°
2026-04-27 08:47 51.09914 16.89731 401 ft 0 kts 296°
2026-04-27 08:47 51.09917 16.89722 400 ft 4 kts 296°
2026-04-27 08:47 51.10025 16.89372 403 ft 70 kts 296°
2026-04-27 08:48 51.10327 16.88388 404 ft 124 kts 296°
2026-04-27 08:48 51.10764 16.86974 587 ft 151 kts 297°
2026-04-27 08:48 51.11239 16.85476 1204 ft 153 kts 298°
2026-04-27 08:48 51.11712 16.83957 1860 ft 156 kts 298°
2026-04-27 08:49 51.12215 16.82309 2149 ft 177 kts 296°
2026-04-27 08:49 51.12786 16.80428 2470 ft 200 kts 296°
2026-04-27 08:49 51.13431 16.78304 2822 ft 225 kts 296°
2026-04-27 08:49 51.14146 16.75950 3375 ft 246 kts 296°
2026-04-27 08:50 51.14903 16.73451 4211 ft 253 kts 296°
2026-04-27 08:50 51.15673 16.70897 5160 ft 256 kts 297°
2026-04-27 08:50 51.16437 16.68368 6069 ft 258 kts 296°
2026-04-27 08:50 51.17228 16.65752 6984 ft 260 kts 297°
2026-04-27 08:51 51.18071 16.63197 7801 ft 262 kts 306°
2026-04-27 08:51 51.18853 16.61729 8344 ft 263 kts 317°
2026-04-27 08:51 51.20921 16.59731 9404 ft 266 kts 341°
2026-04-27 08:51 51.22752 16.59233 10237 ft 270 kts 358°
2026-04-27 08:52 51.24625 16.59703 10963 ft 277 kts 16°
2026-04-27 08:52 51.26379 16.61076 11666 ft 284 kts 25°
2026-04-27 08:52 51.28112 16.62613 12378 ft 287 kts 25°
2026-04-27 08:52 51.29869 16.64167 13092 ft 290 kts 24°
2026-04-27 08:53 51.31643 16.65730 13782 ft 293 kts 24°
2026-04-27 08:53 51.32856 16.66798 14234 ft 296 kts 25°
2026-04-27 08:53 51.34478 16.68881 14850 ft 309 kts 46°
2026-04-27 08:53 51.35465 16.71953 15425 ft 325 kts 71°
2026-04-27 08:54 51.35556 16.75741 15612 ft 355 kts 99°
2026-04-27 08:54 51.34714 16.79525 15752 ft 376 kts 111°
2026-04-27 08:54 51.33574 16.83398 15877 ft 394 kts 115°
2026-04-27 08:54 51.32297 16.87362 16167 ft 405 kts 116°
2026-04-27 08:55 51.30972 16.91369 16613 ft 410 kts 116°
2026-04-27 08:55 51.29642 16.95435 17129 ft 415 kts 116°
2026-04-27 08:55 51.28321 16.99571 17645 ft 419 kts 115°
2026-04-27 08:55 51.27005 17.03753 18145 ft 423 kts 117°
2026-04-27 08:56 51.25420 17.07725 18659 ft 427 kts 127°
2026-04-27 08:56 51.23427 17.11275 19113 ft 431 kts 137°
2026-04-27 08:56 51.21184 17.14482 19582 ft 434 kts 139°
2026-04-27 08:56 51.18917 17.17692 20061 ft 437 kts 139°
2026-04-27 08:57 51.14332 17.24178 21002 ft 443 kts 139°
2026-04-27 08:57 51.12019 17.27449 21444 ft 446 kts 139°
2026-04-27 08:57 51.09691 17.30740 21890 ft 449 kts 139°
2026-04-27 08:58 51.07346 17.34057 22302 ft 453 kts 139°
2026-04-27 08:58 51.04985 17.37400 22721 ft 455 kts 139°
2026-04-27 08:58 51.02612 17.40756 23136 ft 458 kts 139°
2026-04-27 08:58 51.00220 17.44128 23542 ft 461 kts 139°
2026-04-27 08:59 50.97801 17.47525 23940 ft 464 kts 139°
2026-04-27 08:59 50.95374 17.50924 24280 ft 467 kts 139°
2026-04-27 08:59 50.92937 17.54333 24645 ft 468 kts 139°
2026-04-27 08:59 50.90489 17.57759 24991 ft 470 kts 139°
2026-04-27 09:00 50.88027 17.61202 25323 ft 473 kts 139°
2026-04-27 09:00 50.85558 17.64647 25660 ft 475 kts 139°
2026-04-27 09:00 50.83103 17.68065 26016 ft 476 kts 139°
2026-04-27 09:00 50.80610 17.71531 26361 ft 478 kts 139°
2026-04-27 09:01 50.78110 17.75005 26705 ft 480 kts 139°
2026-04-27 09:01 50.75591 17.78498 27054 ft 482 kts 139°
2026-04-27 09:01 50.73060 17.81999 27394 ft 484 kts 139°
2026-04-27 09:01 50.70513 17.85518 27726 ft 487 kts 139°
2026-04-27 09:02 50.67952 17.89054 28052 ft 489 kts 139°
2026-04-27 09:02 50.65386 17.92590 28458 ft 488 kts 139°
2026-04-27 09:02 50.62830 17.96105 28946 ft 487 kts 139°
2026-04-27 09:02 50.60446 17.99880 29436 ft 485 kts 130°
2026-04-27 09:03 50.58445 18.04123 29932 ft 483 kts 121°
2026-04-27 09:03 50.56847 18.08764 30410 ft 480 kts 112°
2026-04-27 09:03 50.55584 18.13547 30798 ft 479 kts 110°
2026-04-27 09:03 50.54315 18.18381 31189 ft 478 kts 111°
2026-04-27 09:04 50.52830 18.23063 31572 ft 479 kts 120°
2026-04-27 09:04 50.50926 18.27358 31949 ft 480 kts 129°
2026-04-27 09:04 50.48681 18.31232 32344 ft 479 kts 134°
2026-04-27 09:04 50.46373 18.35011 32726 ft 479 kts 134°
2026-04-27 09:05 50.44063 18.38805 33114 ft 479 kts 134°
2026-04-27 09:05 50.41762 18.42584 33501 ft 479 kts 134°
2026-04-27 09:05 50.39462 18.46357 33888 ft 478 kts 134°
2026-04-27 09:05 50.37162 18.50127 34273 ft 478 kts 134°
2026-04-27 09:06 50.34864 18.53891 34598 ft 477 kts 134°
2026-04-27 09:06 50.32567 18.57648 34916 ft 477 kts 134°
2026-04-27 09:06 50.30269 18.61396 35197 ft 476 kts 134°
2026-04-27 09:06 50.27975 18.65130 35521 ft 475 kts 134°
2026-04-27 09:07 50.25686 18.68847 35839 ft 474 kts 134°
2026-04-27 09:07 50.23399 18.72560 36152 ft 473 kts 134°
2026-04-27 09:07 50.21145 18.76213 36439 ft 473 kts 134°
2026-04-27 09:07 50.18866 18.79898 36720 ft 472 kts 134°
2026-04-27 09:08 50.16558 18.83633 37003 ft 471 kts 134°
2026-04-27 09:08 50.14281 18.87310 37222 ft 472 kts 134°
2026-04-27 09:08 50.11994 18.90997 37282 ft 475 kts 134°
2026-04-27 09:09 50.07345 18.98463 37278 ft 482 kts 134°
2026-04-27 09:09 50.02690 19.05918 37282 ft 484 kts 134°
2026-04-27 09:10 49.97998 19.13424 37270 ft 484 kts 134°
2026-04-27 09:10 49.93304 19.20903 37270 ft 482 kts 134°
2026-04-27 09:11 49.88598 19.28361 37269 ft 482 kts 134°
2026-04-27 09:11 49.83927 19.35759 37274 ft 483 kts 134°
2026-04-27 09:12 49.79222 19.43187 37282 ft 483 kts 135°
2026-04-27 09:12 49.74511 19.50603 37271 ft 483 kts 135°
2026-04-27 09:13 49.69795 19.58007 37269 ft 482 kts 135°
2026-04-27 09:13 49.65083 19.65387 37263 ft 482 kts 135°
2026-04-27 09:14 49.60391 19.72700 37260 ft 482 kts 135°
2026-04-27 09:14 49.55666 19.80057 37257 ft 483 kts 135°
2026-04-27 09:15 49.50932 19.87401 37251 ft 483 kts 135°
2026-04-27 09:15 49.46188 19.94732 37253 ft 483 kts 135°
2026-04-27 09:16 49.41438 20.02063 37252 ft 483 kts 135°
2026-04-27 09:16 49.36679 20.09376 37249 ft 484 kts 135°
2026-04-27 09:17 49.31916 20.16675 37242 ft 484 kts 135°
2026-04-27 09:17 49.27104 20.23831 37241 ft 484 kts 137°
2026-04-27 09:18 49.22164 20.30856 37237 ft 484 kts 137°
2026-04-27 09:18 49.17214 20.37856 37258 ft 484 kts 137°
2026-04-27 09:19 49.12288 20.44881 37256 ft 485 kts 137°
2026-04-27 09:19 49.07361 20.51930 37251 ft 485 kts 137°
2026-04-27 09:20 49.02458 20.58926 37249 ft 485 kts 137°
2026-04-27 09:20 48.97506 20.65935 37254 ft 485 kts 137°
2026-04-27 09:21 48.92549 20.72932 37253 ft 485 kts 137°
2026-04-27 09:21 48.87601 20.79922 37259 ft 485 kts 137°
2026-04-27 09:22 48.82655 20.86889 37265 ft 485 kts 137°
2026-04-27 09:22 48.77693 20.93833 37279 ft 485 kts 137°
2026-04-27 09:23 48.72732 21.00781 37292 ft 486 kts 137°
2026-04-27 09:23 48.67757 21.07708 37273 ft 486 kts 138°
2026-04-27 09:24 48.62787 21.14620 37283 ft 486 kts 138°
2026-04-27 09:24 48.57839 21.21484 37290 ft 486 kts 138°
2026-04-27 09:25 48.52934 21.28508 37305 ft 486 kts 131°
2026-04-27 09:25 48.49019 21.36818 37304 ft 486 kts 122°
2026-04-27 09:26 48.45350 21.45374 37306 ft 486 kts 122°
2026-04-27 09:26 48.41661 21.53916 37304 ft 486 kts 122°
2026-04-27 09:27 48.37962 21.62440 37298 ft 486 kts 122°
2026-04-27 09:27 48.34260 21.70960 37305 ft 486 kts 122°
2026-04-27 09:28 48.30550 21.79471 37298 ft 486 kts 122°
2026-04-27 09:28 48.26844 21.87963 37309 ft 485 kts 122°
2026-04-27 09:29 48.23140 21.96430 37323 ft 485 kts 123°
2026-04-27 09:29 48.19418 22.04880 37315 ft 486 kts 123°
2026-04-27 09:30 48.15717 22.13269 37314 ft 486 kts 123°
2026-04-27 09:30 48.11991 22.21709 37314 ft 486 kts 123°
2026-04-27 09:31 48.08252 22.30143 37320 ft 486 kts 123°
2026-04-27 09:31 48.04503 22.38566 37314 ft 486 kts 123°
2026-04-27 09:32 48.00746 22.46982 37312 ft 486 kts 123°
2026-04-27 09:32 47.96982 22.55383 37313 ft 486 kts 123°
2026-04-27 09:33 47.93230 22.63712 37326 ft 487 kts 123°
2026-04-27 09:33 47.89453 22.72094 37294 ft 487 kts 124°
2026-04-27 09:34 47.85668 22.80478 37310 ft 487 kts 124°
2026-04-27 09:34 47.82491 22.87482 37313 ft 487 kts 124°
2026-04-27 09:35 47.78717 22.95778 37345 ft 487 kts 124°
2026-04-27 09:35 47.74915 23.04127 37341 ft 487 kts 124°
2026-04-27 09:36 47.71245 23.12597 37336 ft 487 kts 116°
2026-04-27 09:36 47.69076 23.22060 37329 ft 483 kts 97°
2026-04-27 09:37 47.68319 23.31941 37322 ft 482 kts 94°
2026-04-27 09:37 47.67595 23.41857 37311 ft 483 kts 94°
2026-04-27 09:38 47.66854 23.51714 37311 ft 484 kts 94°
2026-04-27 09:38 47.66103 23.61637 37315 ft 484 kts 94°
2026-04-27 09:39 47.65348 23.71566 37317 ft 484 kts 94°
2026-04-27 09:39 47.64566 23.81503 37309 ft 485 kts 95°
2026-04-27 09:40 47.63617 23.91427 37308 ft 486 kts 97°
2026-04-27 09:40 47.62565 24.01349 37305 ft 486 kts 97°
2026-04-27 09:41 47.61520 24.11270 37321 ft 487 kts 97°
2026-04-27 09:41 47.60497 24.21201 37313 ft 487 kts 97°
2026-04-27 09:42 47.59479 24.31076 37303 ft 488 kts 97°
2026-04-27 09:42 47.58444 24.41008 37296 ft 488 kts 97°
2026-04-27 09:43 47.57400 24.50958 37293 ft 488 kts 97°
2026-04-27 09:43 47.56343 24.60892 37289 ft 488 kts 97°
2026-04-27 09:44 47.55270 24.70825 37281 ft 489 kts 97°
2026-04-27 09:44 47.54197 24.80764 37282 ft 489 kts 97°
2026-04-27 09:45 47.53111 24.90702 37273 ft 489 kts 97°
2026-04-27 09:45 47.52017 25.00637 37275 ft 489 kts 97°
2026-04-27 09:46 47.50913 25.10573 37264 ft 490 kts 97°
2026-04-27 09:46 47.49803 25.20509 37255 ft 490 kts 98°
2026-04-27 09:47 47.48689 25.30449 37252 ft 490 kts 98°
2026-04-27 09:47 47.47560 25.40394 37247 ft 490 kts 98°
2026-04-27 09:48 47.46415 25.50332 37248 ft 490 kts 98°
2026-04-27 09:48 47.45275 25.60215 37250 ft 490 kts 98°
2026-04-27 09:49 47.44116 25.70161 37252 ft 491 kts 98°
2026-04-27 09:49 47.42945 25.80092 37257 ft 491 kts 98°
2026-04-27 09:50 47.41773 25.90023 37265 ft 491 kts 98°
2026-04-27 09:50 47.40597 25.99950 37276 ft 491 kts 98°
2026-04-27 09:51 47.39402 26.09878 37265 ft 491 kts 98°
2026-04-27 09:51 47.38200 26.19798 37264 ft 491 kts 98°
2026-04-27 09:52 47.36991 26.29727 37257 ft 491 kts 99°
2026-04-27 09:52 47.35769 26.39639 37259 ft 491 kts 99°
2026-04-27 09:53 47.34549 26.49500 37271 ft 492 kts 99°
2026-04-27 09:53 47.33315 26.59424 37277 ft 492 kts 99°
2026-04-27 09:54 47.32064 26.69350 37271 ft 492 kts 99°
2026-04-27 09:54 47.30808 26.79279 37268 ft 493 kts 99°
2026-04-27 09:54 47.30176 26.84245 37019 ft 493 kts 99°
2026-04-27 09:55 47.29541 26.89216 36759 ft 493 kts 99°
2026-04-27 09:55 47.28905 26.94185 36500 ft 494 kts 99°
2026-04-27 09:55 47.27622 27.04142 35559 ft 497 kts 99°
2026-04-27 09:56 47.26967 27.09190 34655 ft 505 kts 99°
2026-04-27 09:56 47.26303 27.14315 33645 ft 513 kts 99°
2026-04-27 09:56 47.25636 27.19440 32634 ft 519 kts 99°
2026-04-27 09:56 47.24948 27.24691 31590 ft 525 kts 99°
2026-04-27 09:57 47.24249 27.29992 30587 ft 530 kts 99°
2026-04-27 09:57 47.23551 27.35267 29319 ft 524 kts 99°
2026-04-27 09:57 47.22859 27.40483 28676 ft 513 kts 99°
2026-04-27 09:57 47.22178 27.45599 28024 ft 508 kts 99°
2026-04-27 09:58 47.21502 27.50679 27301 ft 505 kts 99°
2026-04-27 09:58 47.20828 27.55736 26584 ft 502 kts 99°
2026-04-27 09:58 47.20154 27.60773 25876 ft 499 kts 99°
2026-04-27 09:58 47.19480 27.65776 25173 ft 497 kts 99°
2026-04-27 09:59 47.18807 27.70748 24469 ft 495 kts 99°
2026-04-27 09:59 47.18132 27.75701 23794 ft 493 kts 98°
2026-04-27 09:59 47.17457 27.80636 22990 ft 490 kts 99°
2026-04-27 09:59 47.16950 27.85534 22392 ft 480 kts 90°
2026-04-27 10:00 47.16948 27.90388 21781 ft 470 kts 83°
2026-04-27 10:00 47.17057 27.95102 21225 ft 465 kts 84°
2026-04-27 10:00 47.17164 27.99823 20662 ft 459 kts 84°
2026-04-27 10:00 47.17266 28.04492 20121 ft 455 kts 84°
2026-04-27 10:01 47.17375 28.09128 19582 ft 451 kts 83°
2026-04-27 10:01 47.17493 28.13725 19055 ft 448 kts 83°
2026-04-27 10:01 47.17609 28.18284 18524 ft 445 kts 83°
2026-04-27 10:01 47.17721 28.22819 17908 ft 442 kts 83°
2026-04-27 10:02 47.17833 28.27321 17292 ft 439 kts 83°
2026-04-27 10:02 47.17944 28.31786 16679 ft 436 kts 83°
2026-04-27 10:02 47.18054 28.36223 16101 ft 433 kts 83°
2026-04-27 10:02 47.18161 28.40628 15519 ft 429 kts 83°
2026-04-27 10:03 47.18265 28.44998 14952 ft 426 kts 83°
2026-04-27 10:03 47.18366 28.49322 14395 ft 422 kts 83°
2026-04-27 10:03 47.18458 28.53558 13804 ft 406 kts 83°
2026-04-27 10:03 47.18547 28.57661 13186 ft 398 kts 83°
2026-04-27 10:04 47.18637 28.61695 12599 ft 392 kts 83°
2026-04-27 10:04 47.18732 28.65675 12002 ft 387 kts 83°
2026-04-27 10:04 47.18831 28.69608 11416 ft 382 kts 84°
2026-04-27 10:04 47.18934 28.73444 10844 ft 375 kts 83°
2026-04-27 10:05 47.19037 28.77199 10306 ft 360 kts 84°
2026-04-27 10:05 47.19132 28.80740 10218 ft 333 kts 83°
2026-04-27 10:05 47.19211 28.84040 10245 ft 318 kts 83°
2026-04-27 10:05 47.19285 28.87311 9788 ft 320 kts 83°
2026-04-27 10:06 47.19364 28.90567 9118 ft 317 kts 83°
2026-04-27 10:06 47.19446 28.93775 8521 ft 311 kts 83°
2026-04-27 10:06 47.19527 28.96934 7961 ft 306 kts 84°
2026-04-27 10:06 47.19612 29.00023 7495 ft 298 kts 83°
2026-04-27 10:07 47.19698 29.03038 7037 ft 291 kts 84°
2026-04-27 10:07 47.19784 29.05977 6619 ft 284 kts 83°
2026-04-27 10:07 47.19867 29.08875 6242 ft 282 kts 83°
2026-04-27 10:07 47.19948 29.11731 5877 ft 284 kts 84°
2026-04-27 10:08 47.19984 29.14634 5503 ft 286 kts 92°
2026-04-27 10:08 47.19409 29.17416 5333 ft 285 kts 118°
2026-04-27 10:08 47.18143 29.19637 5198 ft 285 kts 143°
2026-04-27 10:08 47.16389 29.20925 5067 ft 281 kts 168°
2026-04-27 10:09 47.14460 29.21289 4939 ft 279 kts 178°
2026-04-27 10:09 47.12530 29.21536 4800 ft 276 kts 178°
2026-04-27 10:09 47.10648 29.21774 4673 ft 268 kts 178°
2026-04-27 10:09 47.08823 29.22007 4534 ft 259 kts 178°
2026-04-27 10:10 47.07053 29.22234 4402 ft 251 kts 179°
2026-04-27 10:10 47.05340 29.22452 4268 ft 243 kts 179°
2026-04-27 10:10 47.03678 29.22664 4138 ft 237 kts 179°
2026-04-27 10:10 47.02056 29.22872 4002 ft 230 kts 179°
2026-04-27 10:11 47.00480 29.23078 3868 ft 224 kts 179°
2026-04-27 10:11 46.98964 29.23276 3732 ft 219 kts 179°
2026-04-27 10:11 46.97490 29.23448 3635 ft 204 kts 185°
2026-04-27 10:11 46.96140 29.23145 3492 ft 193 kts 204°
2026-04-27 10:12 46.95002 29.22309 3444 ft 170 kts 222°
2026-04-27 10:12 46.94190 29.21212 3448 ft 151 kts 235°
2026-04-27 10:12 46.93645 29.19989 3311 ft 137 kts 250°
2026-04-27 10:12 46.93331 29.18686 3172 ft 134 kts 262°
2026-04-27 10:13 46.93233 29.17341 3044 ft 133 kts 272°
2026-04-27 10:13 46.93209 29.15991 2973 ft 131 kts 274°
2026-04-27 10:13 46.93186 29.14630 2870 ft 134 kts 272°
2026-04-27 10:13 46.93161 29.13261 2720 ft 138 kts 271°
2026-04-27 10:14 46.93136 29.11889 2555 ft 134 kts 272°
2026-04-27 10:14 46.93111 29.10531 2389 ft 133 kts 273°
2026-04-27 10:14 46.93086 29.09181 2199 ft 132 kts 272°
2026-04-27 10:14 46.93062 29.07839 2019 ft 132 kts 273°
2026-04-27 10:15 46.93038 29.06496 1838 ft 133 kts 273°
2026-04-27 10:15 46.93019 29.05144 1654 ft 135 kts 270°
2026-04-27 10:15 46.93005 29.04243 1567 ft 132 kts 270°
2026-04-27 10:15 46.92957 29.02906 1420 ft 132 kts 271°
2026-04-27 10:16 46.92938 29.01566 1182 ft 131 kts 274°
2026-04-27 10:16 46.92912 29.00211 956 ft 133 kts 273°
2026-04-27 10:16 46.92892 28.98860 766 ft 141 kts 270°
2026-04-27 10:16 46.92855 28.97456 697 ft 137 kts 271°
2026-04-27 10:17 46.92834 28.96070 521 ft 135 kts 272°
2026-04-27 10:17 46.92818 28.94725 409 ft 121 kts 267°
2026-04-27 10:17 46.92793 28.93729 407 ft 73 kts 268°
2026-04-27 10:17 46.92783 28.93237 407 ft 27 kts 268°
2026-04-27 10:18 46.92778 28.92981 409 ft 23 kts 268°
2026-04-27 10:18 46.92772 28.92737 408 ft 26 kts 268°
2026-04-27 10:18 46.92767 28.92461 409 ft 27 kts 268°
2026-04-27 10:18 46.92761 28.92181 408 ft 23 kts 268°
2026-04-27 10:19 46.92776 28.92014 408 ft 15 kts 319°
2026-04-27 10:19 46.92863 28.91997 407 ft 5 kts 358°
2026-04-27 10:19 46.92908 28.91995 408 ft 8 kts 358°
2026-04-27 10:19 46.92973 28.91992 408 ft 11 kts 358°
2026-04-27 10:20 46.93056 28.91987 408 ft 13 kts 358°
2026-04-27 10:20 46.93160 28.92006 408 ft 17 kts 14°
2026-04-27 10:20 46.93258 28.92087 407 ft 17 kts 72°
2026-04-27 10:20 46.93250 28.92270 407 ft 19 kts 97°
2026-04-27 10:21 46.93232 28.92483 405 ft 23 kts 96°
2026-04-27 10:21 46.93215 28.92704 407 ft 22 kts 97°
2026-04-27 10:21 46.93194 28.92937 409 ft 24 kts 97°
2026-04-27 10:21 46.93173 28.93185 410 ft 26 kts 97°
2026-04-27 10:22 46.93155 28.93395 411 ft 14 kts 97°
2026-04-27 10:22 46.93212 28.93454 409 ft 9 kts
2026-04-27 10:22 46.93289 28.93468 408 ft 10 kts
2026-04-27 10:22 46.93326 28.93539 408 ft 8 kts 97°
2026-04-27 10:23 46.93330 28.93588 408 ft 4 kts 45°
2026-04-27 10:23 46.93362 28.93601 408 ft 3 kts
2026-04-27 10:23 46.93375 28.93603 408 ft 0 kts